Flag for France Weather past 2 weeks in Nîmes, France

Now
84 °F

Clear.


Feels Like: 83 °F
Forecast: 67 / 89 °F
Wind: 23 mph from North

Location: Nimes / Garons

Current Time: Jul 30, 2014 at 5:33:32 PM

Latest Report: Jul 30, 2014 at 5:00 PM


Visibility: N/A

Pressure: 29.83 "Hg

Humidity: 37%

Dew point: 55 °F

Location of NîmesLocation

Historic Weather in Nîmes — Graph

°F

Nîmes temperature yesterday

Maximum temperature yesterday: 77 °F (at 12:30 PM)
Minimum temperature yesterday: 59 °F (at 4:00 AM)
Average temperature yesterday: 68 °F

Past Weeks' High & Low Weather Summary

 TemperatureHumidityPressure
High91 °F (Jul 16, 4:30 PM)88% (Jul 18, 1:30 AM)30.09 "Hg (Jul 18, 1:30 AM)
Low59 °F (Jul 29, 4:00 AM)24% (Jul 16, 5:00 PM)29.80 "Hg (Jul 20, 2:00 PM)
Average75 °F54%29.93 "Hg
* Reported Jul 15 4:00 PM — Jul 30 4:30 PM, Nîmes, Weather by CustomWeather, © 2014

Note: Actual official high and low records may vary slightly from our data, if they occured in-between our weather recording intervals... More about our weather records

Advertising

Nîmes weather history for previous 24 hours

 ConditionsComfort  
Time TempWeatherWind HumidityBarometerVisibility
4:30 PM
Jul 30
86 °FClear.22 mph35%29.83 "HgN/A
4:00 PM84 °FClear.20 mph37%29.83 "HgN/A
3:30 PM86 °FClear.20 mph38%29.83 "HgN/A
3:00 PM86 °FClear.21 mph38%29.83 "HgN/A
2:30 PM84 °FClear.20 mph40%29.83 "HgN/A
2:00 PM84 °FClear.17 mph37%29.83 "HgN/A
1:30 PM86 °FClear.16 mph38%29.83 "HgN/A
1:00 PM84 °FClear.17 mph40%29.83 "HgN/A
12:30 PM84 °FClear.15 mph37%29.83 "HgN/A
12:00 PM84 °FPartly sunny.14 mph43%29.83 "HgN/A
11:30 AM82 °FPartly sunny.14 mph42%29.83 "HgN/A
11:00 AM81 °FBroken clouds.10 mph48%29.83 "HgN/A
10:30 AM79 °FClear.10 mph51%29.83 "HgN/A
10:00 AM77 °FClear.5 mph51%29.83 "HgN/A
9:30 AM73 °FClear.3 mph53%29.83 "HgN/A
9:00 AM72 °FClear.3 mph57%29.83 "HgN/A
8:30 AM70 °FClear.5 mph57%29.83 "HgN/A
8:00 AM68 °FMild.2 mph60%29.83 "HgN/A
7:30 AM66 °FClear.5 mph64%29.83 "HgN/A
7:00 AM63 °FClear.3 mph68%29.83 "HgN/A
6:30 AM61 °FClear.3 mph68%29.83 "HgN/A
6:00 AM61 °FClear.3 mph68%29.83 "HgN/A
5:30 AM61 °FClear.No wind72%29.83 "HgN/A
5:00 AM61 °FClear.No wind72%29.83 "HgN/A
4:30 AM61 °FClear.1 mph72%29.86 "HgN/A
4:00 AM63 °FClear.3 mph68%29.86 "HgN/A
3:30 AM63 °FClear.3 mph64%29.86 "HgN/A
3:00 AM63 °FClear.2 mph68%29.86 "HgN/A
2:30 AM63 °FClear.3 mph68%29.86 "HgN/A
2:00 AM64 °FClear.3 mph64%29.86 "HgN/A
1:30 AM64 °FClear.3 mph68%29.89 "HgN/A
1:00 AM63 °FClear.5 mph73%29.89 "HgN/A
12:30 AM63 °FClear.5 mph73%29.89 "HgN/A
12:00 AM64 °FClear.2 mph60%29.89 "HgN/A
11:30 PM
Jul 29
66 °FClear.3 mph56%29.89 "HgN/A
11:00 PM66 °FClear.5 mph56%29.89 "HgN/A
10:30 PM66 °FClear.5 mph56%29.86 "HgN/A
10:00 PM66 °FClear.5 mph56%29.86 "HgN/A
9:30 PM68 °FClear.6 mph53%29.86 "HgN/A
9:00 PM70 °FClear.8 mph50%29.86 "HgN/A
8:30 PM72 °FClear.10 mph47%29.83 "HgN/A
8:00 PM72 °FClear.9 mph50%29.83 "HgN/A
7:30 PM72 °FClear.10 mph50%29.86 "HgN/A
7:00 PM72 °FClear.12 mph50%29.83 "HgN/A
6:30 PM72 °FClear.12 mph53%29.83 "HgN/A
6:00 PM70 °FClear.12 mph57%29.83 "HgN/A
5:30 PM70 °FMostly cloudy.13 mph57%29.86 "HgN/A
5:00 PM70 °FClear.14 mph57%29.86 "HgN/A
Weather by CustomWeather, © 2014

See weather overviewHow to use our weather pages